| time (UTC) | temp F | wind direction | speed knots | gust knots | rain 1hr in | rain 24hr in | rain mn in | humidity % | barometer mb |
| 20260504231557 | 70 | 207 | 0.9 | 4.3 | 0.00 | 0.00 | 0.00 | 33 | 1003.2 |
| 20260504230106 | 71 | 248 | 1.7 | 7.0 | 0.00 | 0.00 | 0.00 | 31 | 1003.2 |
| 20260504224605 | 72 | 0 | 1.7 | 6.1 | 0.00 | 0.00 | 0.00 | 30 | 1003.1 |
| 20260504223106 | 72 | 201 | 0.9 | 7.0 | 0.00 | 0.00 | 0.00 | 31 | 1003.1 |
| 20260504221606 | 72 | 277 | 1.7 | 8.7 | 0.00 | 0.00 | 0.00 | 30 | 1003.1 |
| 20260504220101 | 72 | 181 | 7.0 | 13.0 | 0.00 | 0.00 | 0.00 | 31 | 1003.1 |
| 20260504214600 | 72 | 288 | 2.6 | 10.4 | 0.00 | 0.00 | 0.00 | 33 | 1003.2 |
| 20260504213106 | 72 | 180 | 6.1 | 14.8 | 0.00 | 0.00 | 0.00 | 31 | 1003.4 |
| 20260504211605 | 72 | 199 | 5.2 | 13.0 | 0.00 | 0.00 | 0.00 | 33 | 1003.3 |
| 20260504210057 | 72 | 175 | 5.2 | 13.9 | 0.00 | 0.00 | 0.00 | 33 | 1003.4 |
| 20260504204603 | 71 | 195 | 5.2 | 14.8 | 0.00 | 0.00 | 0.00 | 34 | 1003.4 |
| 20260504203109 | 71 | 188 | 6.1 | 14.8 | 0.00 | 0.00 | 0.00 | 34 | 1003.6 |
| 20260504201601 | 71 | 161 | 10.4 | 18.2 | 0.00 | 0.00 | 0.00 | 35 | 1003.7 |
| 20260504200057 | 71 | 213 | 6.1 | 17.4 | 0.00 | 0.00 | 0.00 | 35 | 1003.7 |
| 20260504194555 | 70 | 207 | 9.6 | 18.2 | 0.00 | 0.00 | 0.00 | 37 | 1004.2 |
| 20260504193056 | 70 | 242 | 4.3 | 13.0 | 0.00 | 0.00 | 0.00 | 41 | 1004.4 |
| 20260504191608 | 71 | 279 | 6.1 | 13.9 | 0.00 | 0.00 | 0.00 | 39 | 1004.5 |
| 20260504190117 | 71 | 194 | 7.8 | 16.5 | 0.00 | 0.00 | 0.00 | 40 | 1004.8 |
| 20260504184558 | 69 | 238 | 4.3 | 14.8 | 0.00 | 0.00 | 0.00 | 42 | 1005.0 |
| 20260504183105 | 70 | 237 | 6.1 | 16.5 | 0.00 | 0.00 | 0.00 | 41 | 1005.1 |
| 20260504181600 | 69 | 223 | 8.7 | 19.1 | 0.00 | 0.00 | 0.00 | 44 | 1005.2 |
| 20260504180112 | 68 | 215 | 9.6 | 17.4 | 0.00 | 0.00 | 0.00 | 46 | 1005.1 |
| 20260504174557 | 68 | 225 | 4.3 | 14.8 | 0.00 | 0.00 | 0.00 | 45 | 1005.2 |
| 20260504173100 | 67 | 192 | 6.1 | 19.1 | 0.00 | 0.00 | 0.00 | 46 | 1005.4 |
| 20260504171558 | 67 | 196 | 5.2 | 13.9 | 0.00 | 0.00 | 0.00 | 48 | 1005.4 |
| 20260504160104 | 64 | 177 | 9.6 | 15.6 | 0.00 | 0.00 | 0.00 | 50 | 1005.9 |
| 20260504140104 | 58 | 295 | 9.6 | 18.2 | 0.00 | 0.00 | 0.00 | 53 | 1006.5 |
| 20260504100104 | 49 | 203 | 10.4 | 19.1 | 0.00 | 0.00 | 0.00 | 57 | 1006.6 |
| 20260504081600 | 49 | 176 | 6.1 | 14.8 | 0.00 | 0.00 | 0.00 | 57 | 1007.4 |
| 20260504080109 | 49 | 171 | 6.1 | 12.2 | 0.00 | 0.00 | 0.00 | 57 | 1007.6 |
| 20260504050107 | 49 | 207 | 4.3 | 10.4 | 0.00 | 0.00 | 0.00 | 56 | 1008.4 |
| 20260504044601 | 50 | 249 | 4.3 | 10.4 | 0.00 | 0.00 | 0.00 | 56 | 1008.6 |
| 20260504043058 | 49 | 202 | 2.6 | 7.8 | 0.00 | 0.00 | 0.00 | 57 | 1008.6 |
| 20260504041605 | 50 | 205 | 2.6 | 7.8 | 0.00 | 0.00 | 0.00 | 56 | 1008.6 |
| 20260504034555 | 52 | 200 | 4.3 | 13.0 | 0.00 | 0.00 | 0.00 | 54 | 1008.7 |
| 20260504033055 | 52 | 225 | 4.3 | 12.2 | 0.00 | 0.00 | 0.00 | 54 | 1008.7 |
| 20260504031558 | 52 | 233 | 5.2 | 11.3 | 0.00 | 0.00 | 0.00 | 55 | 1008.6 |
| 20260504030058 | 51 | 269 | 4.3 | 13.9 | 0.00 | 0.00 | 0.00 | 56 | 1008.6 |
| 20260504024615 | 52 | 225 | 5.2 | 13.0 | 0.00 | 0.00 | 0.00 | 55 | 1008.6 |
| 20260504023055 | 52 | 205 | 7.0 | 15.6 | 0.00 | 0.00 | 0.00 | 55 | 1008.6 |
| 20260504021557 | 53 | 258 | 5.2 | 18.2 | 0.00 | 0.00 | 0.00 | 54 | 1008.9 |
| 20260504020058 | 53 | 259 | 7.0 | 26.1 | 0.00 | 0.00 | 0.00 | 53 | 1008.9 |
| 20260504014605 | 52 | 213 | 4.3 | 13.0 | 0.00 | 0.00 | 0.00 | 53 | 1009.0 |
| 20260504013057 | 52 | 294 | 5.2 | 13.9 | 0.00 | 0.00 | 0.00 | 53 | 1008.8 |
| 20260504011557 | 52 | 229 | 7.0 | 19.1 | 0.00 | 0.00 | 0.00 | 53 | 1009.0 |
| 20260504010104 | 52 | 234 | 4.3 | 13.9 | 0.00 | 0.00 | 0.00 | 53 | 1009.2 |
| 20260504004601 | 52 | 248 | 7.8 | 16.5 | 0.00 | 0.00 | 0.00 | 53 | 1009.2 |
| 20260504003057 | 52 | 232 | 6.1 | 20.9 | 0.00 | 0.00 | 0.00 | 51 | 1009.3 |
| 20260504001556 | 52 | 252 | 7.0 | 16.5 | 0.00 | 0.00 | 0.00 | 49 | 1008.9 |
| 20260504000135 | 52 | 223 | 6.1 | 15.6 | 0.00 | 0.00 | 0.00 | 49 | 1008.9 |
| 20260503234601 | 52 | 234 | 3.5 | 23.5 | 0.00 | 0.00 | 0.00 | 50 | 1008.9 |
| 20260503233055 | 53 | 252 | 7.0 | 18.2 | 0.00 | 0.00 | 0.00 | 48 | 1008.9 |